Weather History for KGAG - January, 2013

Change the Weather History Date:

Saturday, January 26, 2013

  Actual Average Record
Temperature  
Mean Temperature 40 °F -  
Max Temperature 55 °F 48 °F 81 °F (1951)
Min Temperature 24 °F 20 °F -3 °F (1966)
Degree Days  
Heating Degree Days 26    
Moisture  
Dew Point 29 °F    
Average Humidity 64    
Maximum Humidity 91    
Minimum Humidity 38    
Precipitation  
Precipitation 0.00 in - - ()
Sea Level Pressure  
Sea Level Pressure 30.08 in    
Wind  
Wind Speed 7 mph (South)    
Max Wind Speed 24 mph    
Max Gust Speed 33 mph    
Visibility 10 miles    
Events Rain    
Averages and records for this station are not official NWS values.
T = Trace of Precipitation, MM = Missing Value Source: NWS Daily Summary

Daily Weather History Graph

Daily Weather History Graph

Search for Another Location

Airport or City:

Trip Planner

Search our weather history database for the weather conditions in past years. The results will help you decide how hot, cold, wet, or windy it might be!

Date:

Astronomy

Jan. 26, 2013 Rise Set
Actual Time 7:44 AM CST 5:59 PM CST
Civil Twilight 7:16 AM CST 6:26 PM CST
Nautical Twilight 6:45 AM CST 6:57 PM CST
Astronomical Twilight 6:15 AM CST 7:28 PM CST
Moon 5:54 PM CST (1/26) 7:04 AM CST (1/26)
Length of Visible Light 11h 09m
Length of Day
10h 15m
Full, 100% of the Moon is Illuminated
Jan 26
Full
Jan 26
Full
Feb 3
Last Quarter
Feb 10
New
Feb 17
First Quarter

Hourly Weather History & Observations

Time (CST) Temp. Windchill Dew Point Humidity Pressure Visibility Wind Dir Wind Speed Gust Speed Precip Events Conditions
1:53 AM 28.9 °F - 24.1 °F 82% 30.19 in 10.0 mi Calm Calm - N/A   Clear
2:53 AM 28.0 °F 24.2 °F 24.1 °F 85% 30.18 in 10.0 mi ESE 3.5 mph - N/A   Clear
3:53 AM 26.1 °F 20.5 °F 23.0 °F 88% 30.17 in 10.0 mi WSW 4.6 mph - N/A   Clear
4:53 AM 27.0 °F 21.6 °F 23.0 °F 85% 30.17 in 10.0 mi West 4.6 mph - N/A   Clear
5:53 AM 27.0 °F - 23.0 °F 85% 30.17 in 10.0 mi Calm Calm - N/A   Clear
6:53 AM 26.1 °F - 21.9 °F 84% 30.17 in 10.0 mi Calm Calm - N/A   Clear
7:53 AM 24.1 °F - 21.9 °F 91% 30.20 in 9.0 mi Calm Calm - N/A   Clear
8:53 AM 30.0 °F - 26.1 °F 85% 30.20 in 8.0 mi Calm Calm - N/A   Clear
9:53 AM 41.0 °F 34.3 °F 28.9 °F 62% 30.17 in 10.0 mi South 11.5 mph - N/A   Clear
10:53 AM 44.1 °F 38.1 °F 28.9 °F 55% 30.15 in 10.0 mi South 11.5 mph - N/A   Clear
11:53 AM 50.0 °F - 30.0 °F 46% 30.13 in 10.0 mi South 11.5 mph - N/A   Clear
12:53 PM 51.1 °F - 28.9 °F 43% 30.09 in 10.0 mi South 13.8 mph - N/A   Clear
1:53 PM 53.1 °F - 30.0 °F 41% 30.04 in 10.0 mi South 10.4 mph - N/A   Clear
2:53 PM 53.1 °F - 28.9 °F 40% 30.03 in 10.0 mi South 16.1 mph - N/A   Partly Cloudy
3:53 PM 55.0 °F - 30.0 °F 38% 30.01 in 10.0 mi SSE 12.7 mph - N/A   Scattered Clouds
4:53 PM 53.1 °F - 30.9 °F 43% 30.01 in 10.0 mi South 12.7 mph - N/A   Scattered Clouds
5:53 PM 51.1 °F - 33.1 °F 50% 30.00 in 10.0 mi SSE 13.8 mph - 0.00 in   Overcast
6:53 PM 50.0 °F - 33.1 °F 52% 30.00 in 10.0 mi South 11.5 mph - N/A   Mostly Cloudy
7:53 PM 48.9 °F - 35.1 °F 59% 30.01 in 10.0 mi South 11.5 mph 19.6 mph 0.00 in   Mostly Cloudy
8:53 PM 48.0 °F - 35.1 °F 61% 29.95 in 10.0 mi South 21.9 mph 27.6 mph N/A   Mostly Cloudy
9:53 PM 48.0 °F - 36.0 °F 63% 29.93 in 10.0 mi South 24.2 mph 33.4 mph 0.00 in Rain Light Rain
10:53 PM 46.9 °F - 36.0 °F 66% 29.93 in 10.0 mi South 19.6 mph - 0.00 in   Overcast
11:53 PM 46.9 °F - 37.0 °F 68% 29.92 in 10.0 mi South 18.4 mph 27.6 mph N/A   Mostly Cloudy